Tracking 19281 objects as of 16-Nov-2018
HD Live streaming from Space Station
objects crossing your sky now

USA 28

Track USA 28 now!
USA 28 is classified as:


NORAD ID: 18583
Int'l Code: 1987-097A
Perigee: 36,241.5 km
Apogee: 36,421.7 km
Inclination: 14.4 °
Period: 1,463.7 minutes
Semi major axis: 42702 km
RCS: Unknown
Launch date: November 29, 1987
Source: United States (US)
Launch site: AIR FORCE EASTERN TEST RANGE (AFETR)
aabbcc
Your satellite tracking list
Your tracking list is empty




NASA's NSSDC Master Catalog

Two Line Element Set (TLE):
1 18583U 87097A   18257.17060879 0.00000000  00000-0  00000-0 0    00
2 18583  14.3567 358.7013 0021102 211.9277 147.9563  0.98383201    04
Source of the keplerian elements: McCants